Wetbulb
42.72 42.33 40.65 39.20 37.41 35.80 34.63 33.57 32.37 31.62 30.53 30.19 29.24 28.20 28.04 27.70 27.40 26.21 25.44 25.26 23.88 23.14 23.30 22.82 22.25 22.78 22.47 23.32 24.29 24.11 23.14 24.18 23.06 23.66 23.18 22.81 22.11 21.60 22.33 23.73 25.94 27.40 25.74
42.98 40.74 38.62 36.99 36.16 34.16 32.86 32.30 31.59 30.50 30.56 29.58 29.24 28.22 28.07 27.66 26.80 26.24 25.39 24.46 23.14 22.75 22.43 22.63 22.06 22.55 20.61 21.59 22.43 21.97 21.19 21.34 22.38 19.29 20.70 21.10 21.18 21.78 21.45 21.79 23.72 25.70 24.96
38.76 38.26 36.82 35.17 34.74 33.38 31.81 31.18 30.74 30.14 29.58 29.26 29.34 28.28 28.05 27.82 26.82 25.25 25.42 24.41 22.97 22.68 21.31 20.08 19.74 18.68 16.74 16.44 19.70 20.30 20.72 21.42 20.85 20.28 19.35 21.36 21.59 21.31 20.62 21.73 21.91 22.08 24.23
36.87 35.56 34.40 34.27 33.50 33.01 31.53 30.80 30.31 30.15 28.83 28.84 29.30 28.13 28.58 27.71 27.19 26.22 25.00 23.38 22.68 22.87 22.99 22.23 21.29 19.42 16.76 16.84 16.12 11.57 18.01 20.29 20.44 19.36 19.17 19.07 19.44 20.49 20.04 18.48 18.69 20.47 19.68
36.44 35.46 33.74 33.17 32.98 32.10 30.72 30.12 29.81 29.07 28.21 28.11 28.53 27.92 28.26 27.40 27.60 25.73 24.89 24.12 24.06 24.20 24.86 24.90 24.05 23.89 24.30 22.42 19.46 15.15 14.26 17.41 19.11 18.37 17.16 17.89 17.28 16.77 15.13 16.52 17.60 18.11 19.86
36.68 35.48 34.24 33.20 32.62 31.90 30.33 29.72 29.50 28.23 27.24 28.21 27.82 27.34 26.78 28.05 29.32 27.77 25.06 21.80 21.15 20.32 18.20 16.31 21.49 27.41 26.76 25.96 25.51 24.31 18.30 13.49 15.25 16.47 12.81 11.14 12.54 11.16 14.62 14.43 14.43 14.69 13.78
36.69 35.96 34.10 33.09 32.14 31.12 30.65 30.00 28.36 27.87 27.60 27.24 27.72 27.60 26.96 27.58 29.94 29.08 26.89 21.25 17.85 14.87 13.54 12.08 15.98 21.58 21.04 18.59 23.98 24.08 24.42 24.31 17.88 12.28 10.20 8.89 11.33 10.79 8.83 12.64 12.48 11.84 11.94
36.32 34.45 33.53 32.77 31.61 30.98 30.11 29.43 28.42 28.24 27.69 26.81 26.93 27.35 27.06 28.18 30.46 29.52 26.60 20.70 18.79 19.24 19.61 19.88 20.86 18.14 18.35 18.53 18.47 17.10 16.43 16.56 15.35 17.03 11.65 10.50 10.95 12.12 11.47 11.58 11.81 13.00 12.52
35.09 33.40 33.30 32.46 30.69 30.31 29.75 29.01 29.01 28.18 27.31 26.98 26.99 26.49 26.62 28.28 30.67 29.24 24.46 21.40 20.38 20.41 21.68 22.06 21.87 20.84 23.84 24.44 21.34 19.65 17.96 15.77 23.15 23.45 22.03 22.16 21.10 21.55 19.36 16.61 12.97 12.51 10.47
34.99 33.22 33.05 32.82 31.51 30.77 30.06 29.06 28.82 28.25 27.22 27.33 26.43 26.68 28.15 27.87 30.11 28.88 25.71 23.02 21.21 20.70 21.67 22.08 23.52 21.97 24.21 23.58 19.78 18.34 13.03 9.95 11.61 13.92 12.07 13.87 13.79 15.09 15.86 11.08 12.41 12.81 9.37
36.20 34.66 33.47 32.57 31.40 31.08 29.84 29.10 28.18 27.25 26.37 25.32 25.28 26.10 27.35 28.57 28.39 28.56 26.81 23.74 20.78 20.07 20.14 18.95 20.92 24.07 24.19 23.28 21.01 16.37 14.49 9.21 7.99 9.46 10.62 10.79 11.05 11.62 10.83 9.77 7.95 14.01 10.81
35.01 32.81 32.08 31.86 31.62 30.19 28.65 28.03 27.96 27.19 25.59 23.94 23.03 23.89 25.07 26.99 29.24 29.86 28.28 25.10 23.74 19.60 17.06 15.87 16.13 24.61 24.66 23.43 19.27 21.87 19.65 8.53 11.35 10.63 10.77 9.81 8.83 9.11 8.94 8.94 8.25 9.39 9.74
32.34 31.74 31.33 31.42 29.85 28.93 27.38 26.85 26.40 26.72 25.52 23.90 22.18 21.28 21.85 24.52 25.94 29.64 29.86 27.58 25.75 18.39 17.65 19.23 22.17 24.55 24.16 22.30 22.56 21.44 10.03 8.12 7.98 7.92 6.70 7.00 5.99 6.58 5.75 9.24 11.35 11.06 12.02
31.38 30.61 30.75 29.94 28.77 28.17 27.82 27.41 26.15 25.72 25.22 24.60 22.71 20.75 20.97 21.59 22.31 23.37 27.47 27.76 26.11 19.86 20.44 20.91 18.79 16.81 12.21 9.72 14.17 11.15 9.31 7.96 7.97 7.24 6.54 4.63 3.40 7.08 9.39 7.01 9.18 8.56 9.06
31.72 30.63 30.25 29.12 27.80 26.97 27.18 27.10 26.79 26.69 26.76 25.00 24.27 22.66 19.98 19.24 20.78 25.08 27.42 25.98 24.11 18.74 15.94 14.13 13.52 10.88 10.43 9.84 6.82 5.33 6.50 7.69 8.98 5.12 6.84 8.26 8.66 9.23 10.42 10.73 10.43 9.44 7.54
30.55 29.91 29.33 28.53 27.60 27.30 26.49 26.09 28.74 27.48 29.06 29.07 28.02 23.99 23.59 24.51 24.85 27.40 28.03 27.21 24.73 21.38 14.09 11.65 5.35 7.53 9.24 8.09 7.25 6.48 7.14 6.82 9.00 9.58 9.31 10.68 10.65 10.72 11.08 11.58 11.17 9.34 7.63
30.62 30.03 29.32 28.46 27.59 26.19 25.76 24.72 23.71 27.01 29.18 28.84 28.06 26.85 26.27 25.25 25.96 27.50 28.08 27.12 25.14 20.72 13.50 10.43 10.50 8.38 8.97 11.23 10.71 9.81 9.40 10.22 11.10 11.81 11.06 10.62 11.69 11.51 10.75 9.84 8.95 8.30 7.52
30.50 29.87 28.71 27.82 27.27 26.02 25.07 24.75 25.18 24.13 24.06 25.27 27.76 26.63 26.90 27.03 26.65 26.85 27.01 25.20 20.41 19.06 15.32 13.49 11.37 10.96 11.90 12.43 12.04 11.24 10.94 10.74 11.13 10.96 9.33 8.17 8.18 10.23 9.21 8.67 8.12 5.86 6.44
30.58 29.77 29.23 28.40 27.24 25.83 25.50 25.92 25.31 24.79 24.36 24.73 25.29 25.70 25.41 27.45 27.45 26.53 26.21 19.94 19.23 17.28 14.52 13.99 13.25 12.97 12.61 12.72 11.02 10.09 7.78 8.13 8.06 6.20 6.05 5.08 2.29 7.97 6.78 6.93 6.57 1.82 3.39
30.75 30.02 29.35 28.45 27.08 26.26 26.07 25.28 24.61 24.32 23.50 23.59 23.78 23.95 24.68 24.40 23.33 23.38 24.14 22.29 18.65 16.82 14.52 14.06 13.66 13.17 12.58 12.04 9.24 6.56 4.46 4.46 4.17 3.63 2.48 2.23 0.84 5.43 6.14 5.70 4.64 5.75 5.76
31.57 30.67 29.76 28.54 27.20 26.75 25.80 25.21 24.91 24.22 22.71 22.73 24.17 25.04 25.10 24.13 23.21 23.44 21.48 17.65 16.60 14.26 13.01 14.06 13.40 12.47 12.15 11.14 9.61 7.08 8.56 6.88 7.26 5.89 5.86 4.68 -1.88 4.80 6.30 6.01 5.35 6.05 6.23
31.96 30.17 28.74 27.89 27.16 26.02 25.56 25.26 24.37 23.73 23.35 22.77 24.15 24.63 25.21 25.13 23.29 18.61 16.71 15.77 14.71 13.53 13.39 13.21 12.52 12.37 11.97 10.99 9.78 7.18 6.48 4.11 2.83 4.17 4.14 3.61 4.81 5.50 5.24 4.45 4.01 4.11 5.16
31.76 29.95 28.61 27.89 27.23 26.04 24.57 24.61 23.91 23.85 23.52 23.02 19.70 21.21 23.63 20.79 18.05 17.51 16.22 12.91 11.54 11.49 11.84 11.65 10.85 10.49 10.52 9.93 10.00 8.76 6.52 4.71 4.90 3.61 3.30 2.87 3.95 4.63 2.47 3.79 3.06 2.18 2.40
32.37 30.72 29.13 27.95 26.89 25.33 24.64 23.35 23.72 23.73 22.70 20.78 19.15 19.49 21.34 18.33 16.22 15.68 14.48 11.81 11.15 10.19 10.73 10.51 11.22 10.89 8.22 5.89 6.49 6.92 7.90 4.71 4.13 3.52 2.91 2.49 3.15 0.04 1.10 1.65 1.62 -0.21 0.47
32.67 31.61 29.98 28.57 26.61 25.93 25.21 24.02 23.61 22.92 21.88 20.28 19.40 18.86 19.22 17.90 15.61 14.68 13.75 12.47 11.37 8.12 7.45 8.91 10.55 9.18 7.48 4.25 3.47 4.44 3.31 3.13 0.62 -1.97 -0.51 1.04 0.95 -0.65 0.47 1.86 0.37 0.79 -0.74
32.61 31.61 30.58 29.42 27.42 26.55 25.43 24.29 23.34 22.96 22.02 21.21 20.32 19.75 18.93 17.27 16.31 15.26 13.54 12.10 10.30 8.59 7.88 8.84 8.67 7.82 5.53 4.50 4.17 3.76 0.77 -0.84 -3.90 -5.78 -0.79 1.56 0.00 -0.63 -0.94 0.50 -1.29 0.33 0.68
MSLP
1008.06 1008.81 1010.21 1010.82 1012.21 1013.54 1014.57 1015.31 1015.97 1016.80 1017.98 1019.12 1019.83 1020.61 1022.05 1022.93 1023.45 1023.55 1024.43 1024.97 1025.62 1025.62 1026.20 1026.34 1026.30 1026.31 1026.30 1026.59 1026.75 1026.82 1026.90 1026.95 1027.01 1027.27 1027.53 1027.30 1026.87 1026.79 1026.48 1026.22 1025.89 1025.64 1025.47
1008.17 1008.74 1010.09 1011.13 1012.15 1012.51 1013.57 1015.86 1016.42 1016.90 1017.99 1018.75 1019.31 1020.80 1021.94 1022.65 1023.30 1023.64 1024.45 1025.08 1025.47 1026.16 1026.21 1026.44 1026.54 1026.69 1026.86 1026.91 1027.14 1027.28 1027.41 1027.48 1027.32 1027.44 1027.68 1027.53 1027.18 1027.22 1027.00 1026.61 1026.28 1026.06 1025.84
1008.65 1009.65 1010.36 1010.67 1011.95 1012.87 1013.19 1014.43 1016.68 1017.87 1018.07 1018.98 1019.60 1020.38 1021.51 1022.50 1023.22 1023.92 1024.66 1025.05 1025.92 1026.13 1026.42 1026.35 1027.06 1027.03 1027.54 1027.46 1027.51 1027.69 1027.80 1027.83 1027.70 1027.91 1028.00 1027.91 1027.61 1027.44 1027.13 1026.78 1026.48 1026.52 1026.10
1008.26 1009.60 1010.08 1011.37 1012.16 1012.20 1012.79 1014.43 1015.99 1017.30 1018.20 1019.02 1019.97 1020.37 1021.35 1022.06 1023.02 1023.97 1024.53 1025.47 1026.29 1025.97 1026.73 1026.72 1027.25 1027.19 1027.73 1027.93 1028.00 1028.18 1028.31 1028.15 1028.09 1028.20 1028.55 1028.46 1028.10 1027.69 1027.38 1027.06 1026.63 1026.62 1026.50
1007.66 1009.16 1010.05 1011.18 1012.00 1012.71 1013.05 1014.51 1015.48 1016.46 1017.56 1018.35 1019.45 1020.19 1020.97 1021.76 1022.81 1023.62 1024.40 1025.18 1025.93 1025.93 1026.50 1026.64 1027.07 1027.34 1027.55 1028.09 1028.10 1028.56 1028.72 1028.64 1028.61 1028.66 1028.88 1029.19 1028.89 1028.37 1028.07 1027.95 1027.36 1026.87 1026.70
1006.45 1007.36 1009.06 1010.43 1011.41 1012.61 1013.45 1014.54 1015.40 1016.26 1017.05 1018.34 1019.36 1019.76 1020.23 1021.37 1022.09 1023.24 1024.31 1024.98 1025.35 1025.95 1026.81 1026.99 1027.37 1026.97 1027.21 1027.93 1027.89 1028.26 1028.89 1028.89 1029.07 1029.38 1029.69 1029.88 1029.83 1029.62 1029.16 1028.50 1028.08 1027.63 1027.39
1006.33 1006.90 1007.78 1008.65 1010.39 1012.15 1012.76 1014.27 1015.00 1016.28 1016.88 1018.12 1019.42 1019.74 1020.38 1021.43 1022.12 1023.08 1024.24 1024.98 1025.18 1025.86 1026.56 1026.92 1027.55 1027.34 1028.11 1028.61 1028.21 1028.50 1028.45 1028.55 1029.12 1029.65 1030.01 1030.24 1030.15 1030.09 1029.83 1029.09 1028.80 1028.90 1028.93
1005.83 1006.90 1007.98 1008.56 1009.85 1011.45 1011.98 1012.96 1014.45 1015.71 1016.92 1017.95 1018.90 1019.23 1020.15 1021.30 1021.78 1022.88 1024.28 1024.85 1025.40 1025.92 1026.29 1026.93 1027.09 1027.57 1028.49 1028.76 1028.99 1029.36 1029.36 1029.40 1029.42 1029.40 1029.91 1030.24 1030.10 1029.88 1029.90 1029.59 1029.55 1029.28 1029.17
1004.80 1005.90 1006.97 1008.01 1009.55 1010.35 1011.63 1012.55 1014.05 1015.34 1016.97 1018.16 1019.05 1019.27 1020.00 1021.06 1021.48 1023.07 1024.05 1024.74 1025.42 1025.88 1026.51 1026.90 1026.84 1027.52 1027.82 1028.10 1028.51 1029.12 1029.55 1029.66 1029.12 1028.96 1029.09 1029.33 1029.37 1029.17 1029.18 1028.91 1029.50 1029.50 1029.53
1003.87 1005.15 1006.59 1007.90 1008.65 1009.63 1010.60 1012.39 1013.72 1015.55 1016.75 1017.81 1019.09 1019.79 1020.17 1020.55 1021.32 1022.83 1023.79 1024.48 1024.97 1025.87 1026.54 1026.55 1026.87 1027.49 1027.62 1028.06 1028.51 1029.08 1029.72 1030.27 1030.01 1029.97 1030.14 1030.11 1030.16 1029.89 1029.74 1029.87 1029.88 1029.76 1030.00
1003.86 1005.42 1006.75 1007.75 1008.69 1009.23 1010.46 1012.16 1013.53 1015.27 1016.84 1017.77 1018.83 1019.79 1019.71 1020.25 1020.97 1022.44 1023.55 1024.01 1024.75 1025.66 1026.16 1026.60 1027.05 1027.30 1027.83 1028.10 1028.50 1029.14 1029.46 1030.52 1030.68 1030.65 1030.70 1030.70 1030.44 1030.21 1030.23 1030.20 1030.25 1029.81 1029.96
1004.28 1005.66 1006.80 1007.96 1008.96 1009.77 1010.67 1012.16 1013.62 1014.68 1016.27 1017.66 1018.96 1019.77 1019.75 1020.11 1020.75 1021.72 1023.18 1023.98 1024.50 1025.15 1026.06 1026.51 1027.08 1027.21 1027.70 1028.16 1028.76 1028.73 1029.32 1030.49 1030.55 1030.81 1031.10 1031.29 1031.22 1030.97 1030.78 1030.61 1030.40 1030.27 1030.13
1004.94 1005.92 1006.90 1007.97 1008.87 1009.71 1011.00 1012.28 1013.75 1014.90 1015.88 1017.16 1018.12 1019.17 1019.61 1020.14 1020.76 1021.59 1022.36 1023.49 1024.14 1025.01 1025.74 1026.21 1026.64 1026.92 1027.71 1028.20 1028.41 1028.85 1030.06 1030.54 1030.86 1031.33 1031.59 1031.83 1031.88 1031.68 1031.39 1030.78 1030.36 1030.14 1029.91
1005.40 1006.18 1007.04 1007.85 1008.83 1009.62 1010.57 1011.81 1013.13 1014.20 1015.44 1016.24 1017.03 1018.22 1019.06 1019.85 1020.48 1021.21 1022.13 1022.79 1023.96 1024.92 1025.32 1026.02 1026.65 1027.55 1028.55 1029.23 1029.38 1029.98 1030.19 1030.48 1030.98 1031.48 1031.76 1031.92 1032.20 1031.60 1031.25 1031.29 1030.77 1030.54 1030.31
1005.81 1006.50 1007.36 1008.29 1008.86 1009.73 1010.96 1011.70 1012.67 1013.61 1014.17 1015.19 1016.27 1017.23 1018.30 1019.29 1019.74 1020.45 1021.41 1022.38 1023.43 1024.44 1025.57 1026.32 1027.01 1027.79 1028.73 1029.43 1029.88 1030.14 1030.39 1030.73 1030.95 1031.25 1031.58 1031.78 1031.79 1031.56 1031.38 1031.12 1031.00 1030.87 1030.69
1006.24 1007.07 1007.71 1008.41 1009.16 1010.17 1011.17 1012.20 1013.14 1013.65 1014.23 1015.24 1016.24 1016.64 1017.86 1018.58 1019.43 1020.23 1021.21 1022.17 1022.89 1024.14 1025.31 1026.13 1026.85 1027.58 1028.19 1028.99 1029.65 1030.09 1030.22 1030.44 1030.73 1031.02 1031.36 1031.53 1031.54 1031.46 1031.36 1031.25 1031.15 1031.02 1030.80
1006.23 1007.04 1007.87 1008.57 1009.27 1010.17 1011.13 1011.79 1012.80 1014.11 1014.69 1015.18 1016.11 1016.70 1017.22 1017.89 1019.05 1019.93 1021.03 1021.91 1022.63 1023.69 1024.59 1025.39 1026.29 1027.03 1027.54 1028.33 1028.99 1029.36 1029.76 1030.01 1030.26 1030.74 1031.10 1031.31 1031.38 1031.38 1031.37 1031.34 1031.31 1031.14 1030.99
1006.35 1006.95 1007.67 1008.49 1009.18 1009.97 1010.77 1011.70 1012.57 1013.34 1014.12 1015.18 1015.91 1016.46 1017.29 1017.90 1018.60 1019.65 1020.64 1021.64 1022.56 1023.34 1023.94 1024.86 1025.66 1026.43 1027.05 1027.68 1028.29 1028.81 1029.28 1029.74 1030.17 1030.62 1031.01 1031.28 1031.42 1031.40 1031.43 1031.43 1031.43 1031.43 1031.34
1006.24 1006.98 1007.54 1008.35 1009.12 1009.79 1010.55 1011.39 1012.30 1013.10 1013.75 1014.58 1015.57 1016.37 1017.04 1017.62 1018.58 1019.54 1020.23 1020.68 1021.50 1022.54 1023.46 1024.28 1024.82 1025.56 1026.33 1026.96 1027.58 1028.23 1028.81 1029.45 1029.94 1030.50 1030.96 1031.23 1031.42 1031.47 1031.56 1031.57 1031.59 1031.70 1031.61
1005.85 1006.55 1007.22 1008.02 1008.84 1009.61 1010.32 1011.11 1011.88 1012.63 1013.35 1014.09 1014.74 1015.52 1016.56 1017.71 1018.52 1019.05 1019.41 1020.20 1021.19 1021.89 1022.90 1023.55 1024.13 1024.79 1025.60 1026.32 1027.09 1027.84 1028.66 1029.32 1029.89 1030.39 1030.78 1031.10 1031.32 1031.40 1031.47 1031.53 1031.65 1031.62 1031.61
1005.41 1006.09 1006.94 1007.52 1008.12 1008.81 1009.63 1010.33 1011.03 1011.78 1012.68 1013.46 1014.15 1014.89 1015.68 1016.55 1017.46 1018.34 1019.08 1019.81 1020.72 1021.54 1022.34 1022.99 1023.66 1024.24 1024.94 1025.73 1026.61 1027.52 1028.25 1028.92 1029.44 1029.95 1030.45 1030.84 1031.11 1031.30 1031.31 1031.46 1031.60 1031.61 1031.61
1005.06 1005.57 1006.12 1006.71 1007.58 1008.18 1008.79 1009.63 1010.48 1011.19 1011.97 1012.81 1013.56 1014.38 1015.21 1016.01 1016.80 1017.76 1018.68 1019.53 1020.11 1020.84 1021.58 1022.37 1023.21 1023.71 1024.20 1025.02 1025.94 1026.91 1027.77 1028.49 1029.09 1029.64 1030.12 1030.49 1030.79 1030.98 1031.18 1031.45 1031.60 1031.69 1031.72
1004.55 1005.10 1005.65 1006.11 1006.70 1007.70 1008.43 1009.00 1009.70 1010.56 1011.37 1012.10 1012.95 1013.89 1014.67 1015.60 1016.40 1017.31 1018.17 1019.08 1019.67 1020.50 1021.38 1022.09 1022.90 1023.58 1024.01 1024.61 1025.31 1026.13 1027.10 1027.80 1028.44 1029.12 1029.68 1030.16 1030.51 1030.79 1031.06 1031.29 1031.53 1031.78 1031.87
1003.90 1004.31 1004.71 1005.34 1005.92 1006.62 1007.55 1008.34 1009.03 1009.74 1010.55 1011.49 1012.31 1013.23 1013.96 1015.08 1015.84 1016.76 1017.79 1018.63 1019.34 1020.30 1021.04 1021.72 1022.37 1023.01 1023.83 1024.63 1025.25 1025.87 1026.45 1027.17 1027.89 1028.62 1029.19 1029.80 1030.16 1030.57 1030.93 1031.19 1031.46 1031.69 1031.82
1003.00 1003.34 1003.83 1004.37 1005.10 1005.65 1006.45 1007.33 1008.15 1008.99 1009.81 1010.68 1011.59 1012.49 1013.42 1014.50 1015.34 1016.41 1017.31 1018.08 1018.95 1019.99 1020.95 1021.54 1022.11 1022.85 1023.51 1024.36 1025.14 1025.75 1026.43 1027.07 1027.75 1028.42 1029.14 1029.57 1029.98 1030.44 1030.75 1031.02 1031.30 1031.54 1031.74
1002.19 1002.55 1003.04 1003.65 1004.36 1004.87 1005.59 1006.35 1007.16 1007.96 1008.87 1009.79 1010.67 1011.61 1012.43 1013.39 1014.56 1015.74 1016.58 1017.51 1018.51 1019.52 1020.54 1021.33 1022.01 1022.65 1023.48 1024.30 1024.99 1025.68 1026.42 1027.12 1027.85 1028.38 1028.90 1029.39 1029.96 1030.33 1030.76 1030.94 1031.16 1031.38 1031.58
Wind_Speed
17 14 14 14 13 12 11 11 12 13 12 11 11 11 9 8 7 7 6 6 6 6 4 5 6 5 5 4 3 3 4 2 1 2 3 4 7 10 10 9 8 7 8
11 13 12 11 12 15 14 11 12 13 12 12 13 11 9 8 7 8 7 6 7 6 5 6 5 5 6 5 4 5 5 4 1 2 3 5 4 10 9 8 7 6 7
8 8 10 12 14 13 15 16 12 12 12 11 12 12 11 9 8 6 6 7 5 6 5 7 5 6 5 3 4 5 4 5 5 3 3 3 2 7 7 6 6 7 6
12 10 12 11 13 14 16 15 15 14 13 12 10 11 11 10 10 9 9 8 7 7 8 7 6 7 6 5 5 4 3 5 5 5 3 4 3 5 5 8 7 6 5
15 14 12 10 10 12 15 15 15 15 13 13 13 12 12 10 8 10 10 9 8 8 7 7 6 8 11 7 4 3 3 3 4 5 5 4 5 6 6 4 6 5 1
18 19 17 15 15 14 13 14 14 14 14 13 11 13 13 9 20 19 12 8 7 7 6 4 1 10 8 8 8 7 5 4 3 2 1 2 4 2 4 3 4 5 5
16 16 17 20 19 17 17 15 15 14 14 13 11 13 12 10 21 21 19 7 8 7 6 5 4 3 7 5 7 7 6 9 4 5 3 1 1 2 2 5 4 3 2
14 13 15 19 18 17 18 18 16 14 13 12 13 13 12 10 22 21 19 9 8 8 7 6 7 7 6 7 6 5 5 4 3 3 4 2 3 1 1 2 0 4 1
16 16 18 19 18 20 18 17 15 13 12 11 11 13 13 12 22 22 15 10 9 8 7 5 6 6 9 10 5 6 5 3 6 9 9 11 11 11 9 2 4 4 2
15 16 17 17 19 19 19 17 14 12 12 10 10 9 15 13 23 22 15 7 9 7 6 5 10 6 10 9 5 5 5 0 3 4 5 5 7 8 10 5 1 3 2
11 12 14 15 17 17 18 15 13 13 11 11 12 10 12 14 18 22 19 8 7 7 6 4 3 11 10 10 9 5 4 5 3 4 3 3 4 5 5 5 2 2 2
12 13 13 13 12 13 17 14 15 14 14 12 11 9 8 9 16 22 20 14 15 8 7 4 4 12 11 11 7 10 11 5 3 3 3 2 3 4 4 4 4 2 1
12 13 14 14 14 14 15 15 12 13 12 11 10 9 8 7 7 17 21 19 18 6 7 11 11 14 11 8 10 10 7 4 3 3 2 1 1 2 4 2 3 3 2
13 13 14 14 14 14 11 12 11 11 11 11 11 10 9 8 8 5 7 11 16 7 12 9 6 7 6 4 5 4 3 3 3 2 1 1 2 1 2 2 3 4 2
10 10 10 9 12 11 9 11 11 11 13 12 11 11 12 10 9 12 12 9 9 8 8 4 4 4 4 3 2 3 3 3 3 2 1 1 1 1 2 2 2 3 3
10 8 8 9 9 9 9 8 13 13 18 17 17 12 9 11 20 21 22 20 20 20 5 5 3 4 5 5 4 3 2 3 3 3 2 1 1 2 2 3 3 3 4
10 10 8 9 9 9 9 10 10 10 16 19 23 20 20 19 24 24 23 21 22 18 4 5 7 6 4 6 6 4 4 3 4 3 2 2 2 2 2 2 3 4 4
9 13 10 9 9 9 10 10 9 11 13 10 14 14 19 21 24 25 24 21 12 10 5 7 6 6 6 6 6 5 4 4 3 4 3 2 2 2 2 2 2 2 4
9 8 9 9 9 10 9 10 9 10 10 9 8 9 12 20 24 26 27 10 11 9 7 7 6 7 7 6 5 5 5 5 4 4 3 3 3 2 2 2 2 2 2
9 12 11 9 9 10 9 10 9 9 10 10 10 9 9 11 13 12 11 9 8 7 7 6 6 7 7 7 6 6 4 4 4 4 3 3 3 3 3 3 2 1 1
7 10 10 8 10 10 10 10 10 10 10 10 11 11 18 13 12 11 9 9 9 7 7 6 6 6 6 6 7 6 6 5 5 5 4 4 4 3 3 3 3 2 1
7 9 9 10 9 10 10 9 9 10 11 11 10 11 21 11 10 8 9 8 8 7 6 7 6 7 7 8 8 7 6 6 5 5 4 4 4 4 4 3 2 2 1
8 9 9 9 9 10 9 10 10 11 10 10 10 11 10 8 8 9 9 7 7 7 6 6 6 6 5 6 7 7 7 7 7 6 6 5 5 4 4 3 3 2 2
9 10 11 10 9 10 11 10 10 12 11 10 10 10 11 9 9 9 8 7 7 6 6 6 6 9 7 5 5 5 5 4 5 7 7 5 5 5 3 3 3 3 2
10 10 10 11 11 11 11 11 11 11 11 11 10 10 10 9 8 8 8 8 7 7 7 6 6 9 10 10 8 8 7 8 7 7 4 5 6 6 4 3 3 3 2
9 9 9 8 9 10 10 10 11 11 11 11 10 11 11 10 10 9 9 9 8 8 9 6 8 11 12 9 9 10 10 10 8 7 5 5 5 4 3 4 5 3 3
Wind_Direction
177 173 180 172 163 153 155 150 147 138 139 139 140 126 134 133 126 113 116 120 124 102 112 110 103 104 94 93 83 67 59 36 115 95 30 6 24 12 3 358 355 14 8
172 160 169 156 156 153 146 150 148 139 143 144 132 134 136 133 129 127 139 139 123 130 124 115 106 104 88 89 89 77 70 40 65 82 15 1 27 13 358 359 3 7 13
139 159 159 161 165 160 142 139 142 144 139 139 138 140 138 138 125 113 133 124 118 124 118 103 100 94 83 78 78 82 68 63 57 65 42 4 350 14 6 12 23 14 19
146 155 158 178 171 152 140 145 145 145 142 137 139 132 136 133 133 141 134 127 136 122 122 113 116 107 112 102 89 80 63 76 70 64 32 16 8 3 14 11 12 12 19
162 169 166 154 143 144 145 148 145 144 145 140 145 138 140 137 145 144 145 148 144 135 131 138 133 132 120 122 112 97 87 69 67 61 55 25 17 10 15 339 356 346 32
176 174 159 157 152 154 150 148 142 141 139 144 152 149 142 150 159 155 148 142 131 125 124 85 80 148 129 128 113 119 126 110 76 66 56 52 335 328 333 348 350 12 356
185 175 168 160 160 159 149 148 146 149 144 148 155 152 144 148 162 160 154 141 131 134 135 118 101 87 106 84 93 75 62 106 123 138 100 204 340 287 321 349 16 25 297
184 175 172 164 157 157 154 150 151 149 155 154 161 154 147 160 163 158 154 136 132 141 141 151 134 122 138 130 124 98 80 71 111 110 122 203 243 252 322 232 286 301 227
184 178 174 166 161 158 158 151 145 149 150 158 159 155 149 160 160 160 148 141 141 134 146 146 129 143 169 162 138 124 101 43 46 74 73 55 41 38 27 13 31 21 349
182 175 172 170 166 161 150 150 145 151 148 144 146 157 156 153 160 163 155 150 141 142 147 149 143 148 151 155 137 136 117 318 54 44 21 28 33 38 38 45 39 43 1
164 164 168 167 162 155 143 142 138 141 139 142 154 160 154 159 161 166 164 155 149 150 149 139 138 156 153 141 133 133 149 145 83 92 66 33 19 22 23 21 33 62 83
148 151 152 151 149 144 135 141 147 141 144 150 150 160 153 155 165 173 178 169 164 149 158 159 154 163 155 144 136 138 125 110 102 77 60 38 20 3 352 356 23 75 127
142 146 146 144 139 138 144 146 144 149 152 157 160 161 160 163 166 185 187 186 177 141 155 163 169 163 160 147 147 134 121 111 101 80 80 353 286 312 307 350 7 13 41
145 148 148 149 151 147 144 149 150 155 163 165 163 165 161 160 165 161 194 175 184 153 155 163 156 110 108 106 97 100 125 128 129 133 162 264 295 350 31 12 20 6 22
145 145 147 146 143 137 151 157 162 170 172 165 172 165 163 174 181 172 174 169 165 156 132 116 120 113 127 124 113 121 123 131 125 136 136 124 80 60 35 13 30 21 37
138 145 146 143 142 144 147 144 173 168 170 174 173 165 175 165 168 173 179 171 158 155 135 152 148 155 160 167 168 164 156 156 156 152 153 163 137 110 76 47 39 28 18
152 149 144 147 148 152 157 156 151 167 170 170 178 171 168 166 175 177 179 176 169 162 160 162 168 171 169 173 175 166 169 177 158 160 150 161 156 131 126 78 44 30 24
156 157 154 159 159 158 159 160 159 165 169 172 178 171 178 173 175 177 177 167 170 180 168 174 171 172 172 174 174 168 154 153 163 164 155 159 172 159 152 117 82 47 25
160 166 159 160 163 161 158 157 160 161 163 159 153 171 177 177 179 179 177 171 177 179 175 175 172 169 173 170 165 159 155 164 164 157 167 177 181 170 160 157 134 83 44
162 162 161 161 157 160 162 162 161 163 161 164 170 165 161 166 179 182 183 173 179 168 172 174 171 164 167 165 158 153 152 154 164 176 173 184 184 195 180 170 159 144 64
165 158 168 163 168 169 169 173 169 166 167 172 175 173 173 177 180 188 175 170 176 168 167 168 169 165 160 154 152 156 167 173 175 176 177 185 174 185 190 173 166 169 166
173 170 169 171 172 172 172 169 170 171 172 171 169 176 180 185 179 170 172 177 171 162 161 164 167 169 163 161 159 160 167 176 176 176 179 180 188 196 171 168 172 175 175
180 179 179 176 175 175 172 173 171 173 172 170 162 166 176 173 168 170 171 163 155 150 153 154 156 156 151 150 154 161 166 180 186 172 171 178 185 183 177 173 171 179 197
194 193 186 183 179 175 178 176 174 174 168 164 162 169 175 172 168 168 162 155 148 148 153 153 163 161 152 145 149 154 160 150 152 172 164 167 177 172 172 168 180 187 183
201 199 190 184 184 183 175 175 173 172 170 168 168 169 171 166 161 162 157 156 151 149 156 155 155 156 153 150 154 154 150 148 151 143 153 160 169 170 172 178 169 176 177
205 200 196 184 180 177 177 176 177 172 177 174 172 172 171 165 166 167 158 155 152 150 151 152 151 147 144 146 146 138 138 138 136 139 148 152 160 177 184 190 174 174 185